Погода в Кондопоге

Погода в Кондопоге : погода сейчас, прогноз погоды и архив. Всё, что Вы хотите узнать о погоде в Кондопоге!

Поиск расширенной информации на нашем сайте:

Другие новости

Новости СМИ2

Главная страница сайта

Новости сайта

03.07.2017

Напоминаем, что на нашем специализированном сайте Метеоцентр.Азия вы можете получить высокодетализированные автоматические прогнозы погоды по пунктам России, СНГ и мира в авиационном формате (включающие направление и скорость ветра, видимость, явления погоды, количество и форму облачности, нижнюю и верхнюю границу облачности).


Погода в Кондопоге - сегодня

Время (UTC), дата Ветер
(°,м/с) 
Видим.   Явления Облачность Т
(°С)
Тd
(°С)
f(%) Тe
(°С)
Pmin
(гПа)
dP
(гПа)
Po
(мм)
O2
(г/м3)
Тmin Tmax R s Состояние
почвы
12 14.02.18 160 (Ю) н/о    н/о 
-10.9 -13.4 82 -13  1030.5  0.5  769  324           
15 14.02.18 160 (Ю) н/о    н/о 
-13.1 -14.5 89 -13  1031.3  0.7  770  327           
18 14.02.18 140 (ЮВ) 23000 м    ясно 
-14.4 -15.5 91 -14  1032.2  0.9  770  329    -10.4       
21 14.02.18 тихо ()   н/о    н/о 
-15.6 -16.9 90 -16  1032.9  0.7  771  331           
00 15.02.18 тихо ()   н/о    н/о 
-17.1 -18.6 88 -17  1033.5  0.6  771  333           
03 15.02.18 150 (ЮВ) н/о    н/о 
-18.2 -20 86 -18  1033.6  771  335  -18.2         
09 15.02.18 тихо ()   н/о    н/о 
-13.5 -16.5 78 -14  1034.7  0.4  772  329           
12 15.02.18 200 (Ю) н/о    н/о 
-12.1 -15.9 73 -12  1034  -0.7  772  327           
15 15.02.18 тихо ()   н/о    н/о 
-13.9 -15.4 88 -14  1033.4  -0.6  771  329           
18 15.02.18 160 (Ю) 15000 м    ясно 
-15.7 -17.1 89 -16  1032.8  -0.6  771  331    -11       
21 15.02.18 тихо ()   н/о    н/о 
-18.8 -20.9 83 -19  1032.1  -0.8  770  335           
00 16.02.18 тихо ()   н/о    н/о 
-19.6 -21.8 83 -20  1031.4  -0.7  770  336           
03 16.02.18 тихо ()   н/о    н/о 
-20.9 -23.2 82 -21  1030.2  -1.2  769  337  -21.1         
09 16.02.18 тихо ()   н/о    н/о 
-12.4 -14.1 87 -12  1027.7  -1.1  767  325           
12 16.02.18 160 (Ю) н/о    н/о 
-9.4 -10.8 90 -11  1026.5  766  321           
15 16.02.18 140 (ЮВ) н/о    н/о 
-9.8 -11.3 89 -12  1026.2  -0.3  766  321           
21 16.02.18 тихо ()   н/о    н/о 
-13.9 -15.5 88 -14  1026.4  0.1  766  327           
00 17.02.18 тихо ()   н/о    н/о 
-14.8 -16.5 87 -15  1026.5  0.1  766  328           
03 17.02.18 тихо ()   н/о    н/о 
-17.3 -19.2 85 -17  1026.2  -0.3  766  331  -17.3         
09 17.02.18 тихо ()   н/о    н/о 
-11.8 -13.5 87 -12  1025.5  -0.4  765  324           
12 17.02.18 060 (СВ) н/о    н/о 
-7.2 -9.4 84 -9  1024.5  -0.9  765  317           
15 17.02.18 350 (С) н/о    н/о 
-8.2 -9.8 88 -8  1024.1  -0.3  764  319           
21 17.02.18 360 (С) н/о    н/о 
-9 -10.5 89 -9  1023.6  -0.3  764  319           
00 18.02.18 тихо ()   н/о    н/о 
-9.6 -10.9 90 -10  1023.3  -0.3  764  320           
03 18.02.18 340 (С) н/о    н/о 
-8.9 -10.5 88 -9  1023.2  0.1  764  319  -10.2         
Время (UTC), дата Ветер
(°,м/с) 
Видим.   Явления Облачность Т
(°С)
Тd
(°С)
f(%) Тe
(°С)
Pmin
(гПа)
dP
(гПа)
Po
(мм)
O2
(г/м3)
Тmin Tmax R s Состояние
почвы

Для получения пояснительной информации подведите курсор к названию столбца.

ПОГОДА в Кондопоге - архив

Всё, что Вы хотите узнать о погоде в Кондопоге - удобно и подробно!

Выберите нужную дату (начиная с 1 января 2015* года) и нажмите кнопку "Найти".
Будут отображены архивные сводки погоды по пункту Кондопога, начиная с указанной даты.


Отображать данные в формате CSV (для использования в таблицах Excel)


Внимание! Наш архив погоды предназначен исключительно для личного некоммерческого использования в познавательных целях. Если Вам необходимы официальные справки о состоянии погоды (для производственных, юридических, коммерческих и т.п. целей), обращайтесь в органы Росгидромета.

*Примечание: данная дата относится к архиву по метеостанциям СССР (Россия, СНГ, Балтия).
Архив по метеостанциям Зарубежной Европы и Азии (кроме Китая) хранится 10 дней, по другим регионам земного шара (Китай, Африка, Америка, Австралия, Океания) - 1 день.

Кондопога - район местоположения метеостанции


Название, широта, долгота, высота метеостанции:
Кондопога 62.2°ш. 34.3°д. 38 м над ур. моря [Российская Федерация]

Дополнительная информация

В oтличие oт бoльшинства пoгoдных сайтoв мы публикуем пoдрoбную метеoинфoрмацию в детальнoм прoфессиoнальнoм фoрмате.

Характеристики температуры и влажнoсти вoздуха измеряются на высoте 2 м в тени вдали oт зданий и деревьев.
Скoрoсть ветра измеряется на высoте 10 м (на урoвне рoста челoвека скoрoсть ветра ниже в 1.5-2 раза). Если метеoстанция нахoдится в гoрoде или в лесу, тo скoрoсть ветра занижена на 2-4 м/с пo сравнению с oткрытым местoм. Скoрoсть ветра над акватoриями крупных рек и oзёр, а также на вершинах хoлмoв на 2-5 м/с выше, чем в oбычных услoвиях.
Атмoсфернoе давление в разных тoчках местнoсти мoжет значительнo oтличаться oт давления на метеoстанции, в зависимoсти oт услoвий рельефа (при пoдъёме на 10 м давление пoнижается примернo на 1 мм рт.ст.).